Time,TemperatureF,DewpointF,PressureIn,WindDirection,WindDirectionDegrees,WindSpeedMPH,WindSpeedGustMPH,Humidity,HourlyPrecipIn,Conditions,Clouds,dailyrainin,SoftwareType,DateUTC
2013-09-10 00:00:00,73.8,70.7,30.18,East,101,0.0,0.0,90,0.00,,,0.00,Wunderground v.1.15,2013-09-10 04:00:00,
2013-09-10 00:05:00,73.8,70.7,30.18,East,101,0.0,0.0,90,0.00,,,0.00,Wunderground v.1.15,2013-09-10 04:05:00,
2013-09-10 00:10:00,73.7,70.3,30.18,East,101,0.0,0.0,89,0.00,,,0.00,Wunderground v.1.15,2013-09-10 04:10:00,
2013-09-10 00:15:00,73.6,70.5,30.18,East,101,0.0,0.0,90,0.00,,,0.00,Wunderground v.1.15,2013-09-10 04:15:00,
2013-09-10 00:20:00,73.5,70.4,30.18,East,101,0.0,0.0,90,0.00,,,0.00,Wunderground v.1.15,2013-09-10 04:20:00,
2013-09-10 00:25:00,73.4,70.3,30.18,East,101,0.0,0.0,90,0.00,,,0.00,Wunderground v.1.15,2013-09-10 04:25:00,
2013-09-10 00:30:00,73.3,70.2,30.18,East,101,0.0,0.0,90,0.00,,,0.00,Wunderground v.1.15,2013-09-10 04:30:00,
2013-09-10 00:35:00,73.1,70.0,30.18,East,101,0.0,0.0,90,0.00,,,0.00,Wunderground v.1.15,2013-09-10 04:35:00,
2013-09-10 00:40:00,73.0,69.9,30.18,East,101,0.0,0.0,90,0.00,,,0.00,Wunderground v.1.15,2013-09-10 04:40:00,
2013-09-10 00:45:00,72.9,69.8,30.18,East,101,0.0,0.0,90,0.00,,,0.00,Wunderground v.1.15,2013-09-10 04:45:00,
2013-09-10 00:55:00,72.6,69.8,30.18,East,101,0.0,0.0,91,0.00,,,0.00,Wunderground v.1.15,2013-09-10 04:55:00,
2013-09-10 01:05:00,72.2,69.4,30.18,East,101,0.0,0.0,91,0.00,,,0.00,Wunderground v.1.15,2013-09-10 05:05:00,
2013-09-10 01:10:00,72.1,69.6,30.18,East,101,0.0,0.0,92,0.00,,,0.00,Wunderground v.1.15,2013-09-10 05:10:00,
2013-09-10 01:15:00,72.0,69.5,30.18,East,101,0.0,0.0,92,0.00,,,0.00,Wunderground v.1.15,2013-09-10 05:15:00,
2013-09-10 01:20:00,72.0,69.5,30.18,East,101,0.0,0.0,92,0.00,,,0.00,Wunderground v.1.15,2013-09-10 05:20:00,
2013-09-10 01:25:00,72.0,69.5,30.18,East,101,0.0,0.0,92,0.00,,,0.00,Wunderground v.1.15,2013-09-10 05:25:00,
2013-09-10 01:30:00,71.9,69.4,30.18,East,101,0.0,0.0,92,0.00,,,0.00,Wunderground v.1.15,2013-09-10 05:30:00,
2013-09-10 01:40:00,71.8,69.7,30.19,East,101,0.0,0.0,93,0.00,,,0.00,Wunderground v.1.15,2013-09-10 05:40:00,
2013-09-10 01:45:00,71.8,69.7,30.19,East,101,0.0,0.0,93,0.00,,,0.00,Wunderground v.1.15,2013-09-10 05:45:00,
2013-09-10 01:50:00,71.7,69.6,30.19,East,101,0.0,0.0,93,0.00,,,0.00,Wunderground v.1.15,2013-09-10 05:50:00,
2013-09-10 01:55:00,71.5,69.4,30.19,East,101,0.0,0.0,93,0.00,,,0.00,Wunderground v.1.15,2013-09-10 05:55:00,
2013-09-10 02:00:00,71.2,68.8,30.19,East,101,0.0,0.0,92,0.00,,,0.00,Wunderground v.1.15,2013-09-10 06:00:00,
2013-09-10 02:10:00,70.6,68.5,30.19,East,101,0.0,0.0,93,0.00,,,0.00,Wunderground v.1.15,2013-09-10 06:10:00,
2013-09-10 02:15:00,70.5,68.4,30.19,East,101,0.0,0.0,93,0.00,,,0.00,Wunderground v.1.15,2013-09-10 06:15:00,
2013-09-10 02:20:00,70.6,68.8,30.19,East,101,0.0,0.0,94,0.00,,,0.00,Wunderground v.1.15,2013-09-10 06:20:00,
2013-09-10 02:25:00,70.6,68.8,30.19,East,101,0.0,0.0,94,0.00,,,0.00,Wunderground v.1.15,2013-09-10 06:25:00,
2013-09-10 02:30:00,70.5,68.7,30.19,East,101,0.0,0.0,94,0.00,,,0.00,Wunderground v.1.15,2013-09-10 06:30:00,
2013-09-10 02:35:00,70.4,68.6,30.19,East,101,0.0,0.0,94,0.00,,,0.00,Wunderground v.1.15,2013-09-10 06:35:00,
2013-09-10 02:40:00,70.3,68.5,30.19,East,101,0.0,0.0,94,0.00,,,0.00,Wunderground v.1.15,2013-09-10 06:40:00,
2013-09-10 02:45:00,70.2,68.7,30.19,East,101,0.0,0.0,95,0.00,,,0.00,Wunderground v.1.15,2013-09-10 06:45:00,
2013-09-10 02:55:00,70.3,68.8,30.19,East,101,0.0,0.0,95,0.00,,,0.00,Wunderground v.1.15,2013-09-10 06:55:00,
2013-09-10 03:00:00,70.3,68.8,30.19,East,101,0.0,0.0,95,0.00,,,0.00,Wunderground v.1.15,2013-09-10 07:00:00,
2013-09-10 03:10:00,70.3,68.8,30.19,East,101,0.0,0.0,95,0.00,,,0.00,Wunderground v.1.15,2013-09-10 07:10:00,
2013-09-10 03:15:00,70.3,68.8,30.19,East,101,0.0,0.0,95,0.00,,,0.00,Wunderground v.1.15,2013-09-10 07:15:00,
2013-09-10 03:20:00,70.3,68.8,30.19,East,101,0.0,0.0,95,0.00,,,0.00,Wunderground v.1.15,2013-09-10 07:20:00,
2013-09-10 03:30:00,70.3,68.8,30.19,East,101,0.0,0.0,95,0.00,,,0.00,Wunderground v.1.15,2013-09-10 07:30:00,
2013-09-10 03:35:00,70.3,68.8,30.19,East,101,0.0,0.0,95,0.00,,,0.00,Wunderground v.1.15,2013-09-10 07:35:00,
2013-09-10 03:40:00,70.2,68.7,30.19,East,101,0.0,0.0,95,0.00,,,0.00,Wunderground v.1.15,2013-09-10 07:40:00,
2013-09-10 03:45:00,70.1,68.6,30.19,East,101,0.0,0.0,95,0.00,,,0.00,Wunderground v.1.15,2013-09-10 07:45:00,
2013-09-10 03:50:00,70.1,68.6,30.19,East,101,0.0,0.0,95,0.00,,,0.00,Wunderground v.1.15,2013-09-10 07:50:00,
2013-09-10 03:55:00,70.1,68.6,30.19,East,101,0.0,0.0,95,0.00,,,0.00,Wunderground v.1.15,2013-09-10 07:55:00,
2013-09-10 04:00:00,70.1,68.6,30.19,East,101,0.0,0.0,95,0.00,,,0.00,Wunderground v.1.15,2013-09-10 08:00:00,
2013-09-10 04:10:00,70.1,68.6,30.19,East,101,0.0,0.0,95,0.00,,,0.00,Wunderground v.1.15,2013-09-10 08:10:00,
2013-09-10 04:15:00,70.0,68.5,30.19,East,101,0.0,0.0,95,0.00,,,0.00,Wunderground v.1.15,2013-09-10 08:15:00,
2013-09-10 04:20:00,70.0,68.5,30.19,East,101,0.0,0.0,95,0.00,,,0.00,Wunderground v.1.15,2013-09-10 08:20:00,
2013-09-10 04:25:00,69.9,68.4,30.19,East,101,0.0,0.0,95,0.00,,,0.00,Wunderground v.1.15,2013-09-10 08:25:00,
2013-09-10 04:30:00,69.8,68.3,30.19,East,101,0.0,0.0,95,0.00,,,0.00,Wunderground v.1.15,2013-09-10 08:30:00,
2013-09-10 04:35:00,69.8,68.6,30.19,East,101,0.0,0.0,96,0.00,,,0.00,Wunderground v.1.15,2013-09-10 08:35:00,
2013-09-10 04:45:00,69.8,68.6,30.20,East,101,0.0,0.0,96,0.00,,,0.00,Wunderground v.1.15,2013-09-10 08:45:00,
2013-09-10 04:50:00,69.6,68.4,30.20,East,101,0.0,0.0,96,0.00,,,0.00,Wunderground v.1.15,2013-09-10 08:50:00,
2013-09-10 04:55:00,69.7,68.5,30.20,East,101,0.0,0.0,96,0.00,,,0.00,Wunderground v.1.15,2013-09-10 08:55:00,
2013-09-10 05:00:00,69.6,68.4,30.20,East,101,0.0,0.0,96,0.00,,,0.00,Wunderground v.1.15,2013-09-10 09:00:00,
2013-09-10 05:10:00,69.4,68.2,30.20,East,101,0.0,0.0,96,0.00,,,0.00,Wunderground v.1.15,2013-09-10 09:10:00,
2013-09-10 05:15:00,69.3,68.1,30.20,East,101,0.0,0.0,96,0.00,,,0.00,Wunderground v.1.15,2013-09-10 09:15:00,
2013-09-10 05:25:00,69.6,68.4,30.20,East,101,0.0,0.0,96,0.00,,,0.00,Wunderground v.1.15,2013-09-10 09:25:00,
2013-09-10 05:30:00,69.7,68.5,30.21,East,101,0.0,0.0,96,0.00,,,0.00,Wunderground v.1.15,2013-09-10 09:30:00,
2013-09-10 05:35:00,69.7,68.5,30.21,East,101,0.0,0.0,96,0.00,,,0.00,Wunderground v.1.15,2013-09-10 09:35:00,
2013-09-10 05:40:00,69.7,68.5,30.21,East,101,0.0,0.0,96,0.00,,,0.00,Wunderground v.1.15,2013-09-10 09:40:00,
2013-09-10 05:45:00,69.5,68.3,30.21,East,101,0.0,0.0,96,0.00,,,0.00,Wunderground v.1.15,2013-09-10 09:45:00,
2013-09-10 05:50:00,69.3,68.1,30.21,East,101,0.0,0.0,96,0.00,,,0.00,Wunderground v.1.15,2013-09-10 09:50:00,
2013-09-10 06:00:00,69.1,67.9,30.21,East,101,0.0,0.0,96,0.00,,,0.00,Wunderground v.1.15,2013-09-10 10:00:00,
2013-09-10 06:10:00,68.6,67.4,30.21,East,101,0.0,0.0,96,0.00,,,0.00,Wunderground v.1.15,2013-09-10 10:10:00,
2013-09-10 06:15:00,68.4,67.2,30.22,East,101,0.0,0.0,96,0.00,,,0.00,Wunderground v.1.15,2013-09-10 10:15:00,
2013-09-10 06:20:00,68.4,67.2,30.22,East,101,0.0,0.0,96,0.00,,,0.00,Wunderground v.1.15,2013-09-10 10:20:00,
2013-09-10 06:25:00,68.1,66.9,30.22,East,101,0.0,0.0,96,0.00,,,0.00,Wunderground v.1.15,2013-09-10 10:25:00,
2013-09-10 06:30:00,67.9,66.7,30.22,East,101,0.0,0.0,96,0.00,,,0.00,Wunderground v.1.15,2013-09-10 10:30:00,
2013-09-10 06:40:00,67.8,66.6,30.23,East,101,0.0,0.0,96,0.00,,,0.00,Wunderground v.1.15,2013-09-10 10:40:00,
2013-09-10 06:45:00,67.8,66.6,30.23,East,101,0.0,0.0,96,0.00,,,0.00,Wunderground v.1.15,2013-09-10 10:45:00,
2013-09-10 06:50:00,67.9,66.7,30.23,East,101,0.0,0.0,96,0.00,,,0.00,Wunderground v.1.15,2013-09-10 10:50:00,
2013-09-10 06:55:00,67.7,66.5,30.23,East,101,0.0,0.0,96,0.00,,,0.00,Wunderground v.1.15,2013-09-10 10:55:00,
2013-09-10 07:00:00,67.4,66.2,30.23,East,101,0.0,0.0,96,0.00,,,0.00,Wunderground v.1.15,2013-09-10 11:00:00,
2013-09-10 07:10:00,67.2,66.0,30.23,East,101,0.0,0.0,96,0.00,,,0.00,Wunderground v.1.15,2013-09-10 11:10:00,
2013-09-10 07:20:00,67.0,65.8,30.23,East,101,0.0,0.0,96,0.00,,,0.00,Wunderground v.1.15,2013-09-10 11:20:00,
2013-09-10 07:25:00,67.2,66.3,30.23,East,101,0.0,0.0,97,0.00,,,0.00,Wunderground v.1.15,2013-09-10 11:25:00,
2013-09-10 07:30:00,67.7,66.8,30.23,East,101,0.0,0.0,97,0.00,,,0.00,Wunderground v.1.15,2013-09-10 11:30:00,
2013-09-10 07:35:00,68.3,67.4,30.23,East,101,0.0,0.0,97,0.00,,,0.00,Wunderground v.1.15,2013-09-10 11:35:00,
2013-09-10 07:40:00,68.6,67.7,30.23,East,101,0.0,0.0,97,0.00,,,0.00,Wunderground v.1.15,2013-09-10 11:40:00,
2013-09-10 07:45:00,68.8,67.9,30.23,East,101,0.0,0.0,97,0.00,,,0.00,Wunderground v.1.15,2013-09-10 11:45:00,
2013-09-10 07:55:00,69.2,68.3,30.23,East,101,0.0,0.0,97,0.00,,,0.00,Wunderground v.1.15,2013-09-10 11:55:00,
2013-09-10 08:00:00,69.4,68.5,30.24,East,101,0.0,0.0,97,0.00,,,0.00,Wunderground v.1.15,2013-09-10 12:00:00,
2013-09-10 08:10:00,69.9,69.0,30.24,East,101,0.0,0.0,97,0.00,,,0.00,Wunderground v.1.15,2013-09-10 12:10:00,
2013-09-10 08:15:00,70.3,69.4,30.24,East,101,0.0,0.0,97,0.00,,,0.00,Wunderground v.1.15,2013-09-10 12:15:00,
2013-09-10 08:20:00,70.9,70.3,30.24,East,101,0.0,0.0,98,0.00,,,0.00,Wunderground v.1.15,2013-09-10 12:20:00,
2013-09-10 08:30:00,71.7,70.8,30.24,East,101,0.0,0.0,97,0.00,,,0.00,Wunderground v.1.15,2013-09-10 12:30:00,
2013-09-10 08:35:00,72.2,71.3,30.24,East,101,0.0,0.0,97,0.00,,,0.00,Wunderground v.1.15,2013-09-10 12:35:00,
2013-09-10 08:40:00,72.6,71.7,30.24,East,101,0.0,0.0,97,0.00,,,0.00,Wunderground v.1.15,2013-09-10 12:40:00,
2013-09-10 08:45:00,73.0,71.8,30.24,North,355,1.0,1.0,96,0.00,,,0.00,Wunderground v.1.15,2013-09-10 12:45:00,
2013-09-10 08:50:00,73.5,72.0,30.24,West,265,2.0,2.0,95,0.00,,,0.00,Wunderground v.1.15,2013-09-10 12:50:00,
2013-09-10 08:55:00,74.0,72.2,30.24,WSW,252,2.0,2.0,94,0.00,,,0.00,Wunderground v.1.15,2013-09-10 12:55:00,
2013-09-10 09:00:00,74.3,72.5,30.24,WSW,239,2.0,2.0,94,0.00,,,0.00,Wunderground v.1.15,2013-09-10 13:00:00,
2013-09-10 09:10:00,74.9,72.4,30.25,WSW,244,2.0,3.0,92,0.00,,,0.00,Wunderground v.1.15,2013-09-10 13:10:00,
2013-09-10 09:15:00,75.3,72.8,30.25,WSW,244,2.0,3.0,92,0.00,,,0.00,Wunderground v.1.15,2013-09-10 13:15:00,
2013-09-10 09:20:00,75.7,72.9,30.25,WSW,244,1.0,1.0,91,0.00,,,0.00,Wunderground v.1.15,2013-09-10 13:20:00,
2013-09-10 09:25:00,75.9,72.4,30.25,WSW,244,1.0,6.0,89,0.00,,,0.00,Wunderground v.1.15,2013-09-10 13:25:00,
2013-09-10 09:30:00,76.0,72.5,30.25,WSW,246,2.0,5.0,89,0.00,,,0.00,Wunderground v.1.15,2013-09-10 13:30:00,
2013-09-10 09:35:00,76.2,72.4,30.25,WSW,246,2.0,5.0,88,0.00,,,0.00,Wunderground v.1.15,2013-09-10 13:35:00,
2013-09-10 09:40:00,76.6,72.8,30.25,WSW,243,2.0,3.0,88,0.00,,,0.00,Wunderground v.1.15,2013-09-10 13:40:00,
2013-09-10 09:50:00,77.6,72.7,30.25,WSW,244,2.0,6.0,85,0.00,,,0.00,Wunderground v.1.15,2013-09-10 13:50:00,
2013-09-10 09:55:00,78.2,72.6,30.25,WSW,242,2.0,6.0,83,0.00,,,0.00,Wunderground v.1.15,2013-09-10 13:55:00,
2013-09-10 10:00:00,78.6,72.6,30.26,SW,229,2.0,2.0,82,0.00,,,0.00,Wunderground v.1.15,2013-09-10 14:00:00,
2013-09-10 10:10:00,79.5,72.8,30.26,West,270,2.0,2.0,80,0.00,,,0.00,Wunderground v.1.15,2013-09-10 14:10:00,
2013-09-10 10:15:00,79.9,72.0,30.26,West,270,2.0,5.0,77,0.00,,,0.00,Wunderground v.1.15,2013-09-10 14:15:00,
2013-09-10 10:20:00,80.1,72.2,30.26,West,265,2.0,5.0,77,0.00,,,0.00,Wunderground v.1.15,2013-09-10 14:20:00,
2013-09-10 10:30:00,80.3,72.4,30.26,WSW,248,3.0,5.0,77,0.00,,,0.00,Wunderground v.1.15,2013-09-10 14:30:00,
2013-09-10 10:35:00,80.4,71.3,30.26,WSW,248,3.0,5.0,74,0.00,,,0.00,Wunderground v.1.15,2013-09-10 14:35:00,
2013-09-10 10:40:00,80.5,72.2,30.26,SW,228,3.0,3.0,76,0.00,,,0.00,Wunderground v.1.15,2013-09-10 14:40:00,
2013-09-10 10:45:00,81.2,72.5,30.26,West,278,1.0,6.0,75,0.00,,,0.00,Wunderground v.1.15,2013-09-10 14:45:00,
2013-09-10 10:50:00,81.3,70.6,30.25,WSW,242,2.0,2.0,70,0.00,,,0.00,Wunderground v.1.15,2013-09-10 14:50:00,
2013-09-10 10:55:00,81.4,71.1,30.26,SW,225,3.0,3.0,71,0.00,,,0.00,Wunderground v.1.15,2013-09-10 14:55:00,
2013-09-10 11:05:00,82.2,72.3,30.25,WSW,239,2.0,6.0,72,0.00,,,0.00,Wunderground v.1.15,2013-09-10 15:05:00,
2013-09-10 11:10:00,82.2,71.9,30.25,SW,222,4.0,5.0,71,0.00,,,0.00,Wunderground v.1.15,2013-09-10 15:10:00,
2013-09-10 11:15:00,82.3,71.1,30.25,SW,230,4.0,5.0,69,0.00,,,0.00,Wunderground v.1.15,2013-09-10 15:15:00,
2013-09-10 11:20:00,82.5,71.3,30.25,WSW,242,4.0,4.0,69,0.00,,,0.00,Wunderground v.1.15,2013-09-10 15:20:00,
2013-09-10 11:30:00,83.2,71.1,30.25,WSW,237,3.0,3.0,67,0.00,,,0.00,Wunderground v.1.15,2013-09-10 15:30:00,
2013-09-10 11:35:00,83.0,71.8,30.25,WSW,237,2.0,3.0,69,0.00,,,0.00,Wunderground v.1.15,2013-09-10 15:35:00,
2013-09-10 11:40:00,83.1,71.4,30.25,SW,236,1.0,1.0,68,0.00,,,0.00,Wunderground v.1.15,2013-09-10 15:40:00,
2013-09-10 11:45:00,83.5,71.8,30.25,SW,232,1.0,6.0,68,0.00,,,0.00,Wunderground v.1.15,2013-09-10 15:45:00,
2013-09-10 11:50:00,83.5,70.9,30.25,SW,229,2.0,2.0,66,0.00,,,0.00,Wunderground v.1.15,2013-09-10 15:50:00,
2013-09-10 12:00:00,83.8,71.2,30.25,SW,225,1.0,1.0,66,0.00,,,0.00,Wunderground v.1.15,2013-09-10 16:00:00,
2013-09-10 12:10:00,84.2,71.2,30.25,South,180,2.0,5.0,65,0.00,,,0.00,Wunderground v.1.15,2013-09-10 16:10:00,
2013-09-10 12:15:00,84.5,71.9,30.25,South,182,3.0,5.0,66,0.00,,,0.00,Wunderground v.1.15,2013-09-10 16:15:00,
2013-09-10 12:20:00,84.3,70.8,30.25,South,184,2.0,2.0,64,0.00,,,0.00,Wunderground v.1.15,2013-09-10 16:20:00,
2013-09-10 12:25:00,84.2,70.7,30.25,South,184,1.0,2.0,64,0.00,,,0.00,Wunderground v.1.15,2013-09-10 16:25:00,
2013-09-10 12:35:00,85.5,71.9,30.25,WSW,253,1.0,5.0,64,0.00,,,0.00,Wunderground v.1.15,2013-09-10 16:35:00,
2013-09-10 12:40:00,85.3,70.3,30.25,WSW,255,1.0,1.0,61,0.00,,,0.00,Wunderground v.1.15,2013-09-10 16:40:00,
2013-09-10 12:45:00,85.2,70.2,30.25,WSW,257,1.0,1.0,61,0.00,,,0.00,Wunderground v.1.15,2013-09-10 16:45:00,
2013-09-10 12:50:00,85.4,70.9,30.24,WSW,257,0.0,0.0,62,0.00,,,0.00,Wunderground v.1.15,2013-09-10 16:50:00,
2013-09-10 12:55:00,85.5,70.0,30.24,West,269,1.0,1.0,60,0.00,,,0.00,Wunderground v.1.15,2013-09-10 16:55:00,
2013-09-10 13:00:00,85.8,70.3,30.24,West,269,2.0,2.0,60,0.00,,,0.00,Wunderground v.1.15,2013-09-10 17:00:00,
2013-09-10 13:10:00,86.1,71.1,30.24,West,278,2.0,2.0,61,0.00,,,0.00,Wunderground v.1.15,2013-09-10 17:10:00,
2013-09-10 13:15:00,85.7,70.7,30.24,West,278,2.0,2.0,61,0.00,,,0.00,Wunderground v.1.15,2013-09-10 17:15:00,
2013-09-10 13:20:00,86.1,71.1,30.24,WNW,282,1.0,1.0,61,0.00,,,0.00,Wunderground v.1.15,2013-09-10 17:20:00,
2013-09-10 13:25:00,86.1,70.1,30.24,West,277,2.0,6.0,59,0.00,,,0.00,Wunderground v.1.15,2013-09-10 17:25:00,
2013-09-10 13:30:00,85.9,70.9,30.24,West,265,2.0,2.0,61,0.00,,,0.00,Wunderground v.1.15,2013-09-10 17:30:00,
2013-09-10 13:35:00,85.8,70.8,30.24,West,265,1.0,2.0,61,0.00,,,0.00,Wunderground v.1.15,2013-09-10 17:35:00,
2013-09-10 13:40:00,86.5,70.0,30.24,SW,227,2.0,3.0,58,0.00,,,0.00,Wunderground v.1.15,2013-09-10 17:40:00,
2013-09-10 13:45:00,86.8,70.8,30.23,SW,227,2.0,3.0,59,0.00,,,0.00,Wunderground v.1.15,2013-09-10 17:45:00,
2013-09-10 13:55:00,86.5,69.5,30.23,SW,234,2.0,5.0,57,0.00,,,0.00,Wunderground v.1.15,2013-09-10 17:55:00,
2013-09-10 14:00:00,86.9,68.8,30.23,SW,234,1.0,1.0,55,0.00,,,0.00,Wunderground v.1.15,2013-09-10 18:00:00,
2013-09-10 14:10:00,87.5,72.9,30.23,WSW,244,0.0,0.0,62,0.00,,,0.00,Wunderground v.1.15,2013-09-10 18:10:00,
2013-09-10 14:20:00,87.4,70.3,30.22,WSW,242,0.0,0.0,57,0.00,,,0.00,Wunderground v.1.15,2013-09-10 18:20:00,
2013-09-10 14:30:00,87.6,70.5,30.22,WSW,242,1.0,1.0,57,0.00,,,0.00,Wunderground v.1.15,2013-09-10 18:30:00,
2013-09-10 14:35:00,87.5,70.4,30.21,SSW,211,1.0,1.0,57,0.00,,,0.00,Wunderground v.1.15,2013-09-10 18:35:00,
2013-09-10 14:40:00,87.7,69.5,30.21,SSW,212,2.0,2.0,55,0.00,,,0.00,Wunderground v.1.15,2013-09-10 18:40:00,
2013-09-10 14:45:00,87.6,70.0,30.21,SSW,212,1.0,2.0,56,0.00,,,0.00,Wunderground v.1.15,2013-09-10 18:45:00,
2013-09-10 14:50:00,88.1,70.9,30.21,SSW,212,0.0,0.0,57,0.00,,,0.00,Wunderground v.1.15,2013-09-10 18:50:00,
2013-09-10 15:00:00,88.2,68.9,30.21,SSW,194,0.0,0.0,53,0.00,,,0.00,Wunderground v.1.15,2013-09-10 19:00:00,
2013-09-10 15:10:00,88.2,71.0,30.20,South,185,0.0,1.0,57,0.00,,,0.00,Wunderground v.1.15,2013-09-10 19:10:00,
2013-09-10 15:15:00,88.0,70.9,30.20,South,182,1.0,1.0,57,0.00,,,0.00,Wunderground v.1.15,2013-09-10 19:15:00,
2013-09-10 15:25:00,87.9,69.7,30.20,South,190,1.0,5.0,55,0.00,,,0.00,Wunderground v.1.15,2013-09-10 19:25:00,
2013-09-10 15:30:00,88.6,70.9,30.20,South,187,1.0,1.0,56,0.00,,,0.00,Wunderground v.1.15,2013-09-10 19:30:00,
2013-09-10 15:35:00,88.8,70.0,30.20,South,169,1.0,1.0,54,0.00,,,0.00,Wunderground v.1.15,2013-09-10 19:35:00,
2013-09-10 15:40:00,88.2,70.0,30.19,South,169,1.0,1.0,55,0.00,,,0.00,Wunderground v.1.15,2013-09-10 19:40:00,
2013-09-10 15:45:00,88.1,70.9,30.19,South,170,0.0,1.0,57,0.00,,,0.00,Wunderground v.1.15,2013-09-10 19:45:00,
2013-09-10 15:50:00,88.3,71.1,30.19,SSE,163,0.0,0.0,57,0.00,,,0.00,Wunderground v.1.15,2013-09-10 19:50:00,
2013-09-10 15:55:00,88.1,71.5,30.19,SSE,152,1.0,1.0,58,0.00,,,0.00,Wunderground v.1.15,2013-09-10 19:55:00,
2013-09-10 16:05:00,88.4,70.7,30.18,SSE,152,0.0,0.0,56,0.00,,,0.00,Wunderground v.1.15,2013-09-10 20:05:00,
2013-09-10 16:10:00,88.5,70.8,30.18,SSE,152,0.0,0.0,56,0.00,,,0.00,Wunderground v.1.15,2013-09-10 20:10:00,
2013-09-10 16:15:00,88.7,71.5,30.18,SSE,152,1.0,1.0,57,0.00,,,0.00,Wunderground v.1.15,2013-09-10 20:15:00,
2013-09-10 16:20:00,88.8,71.6,30.18,SSE,152,1.0,4.0,57,0.00,,,0.00,Wunderground v.1.15,2013-09-10 20:20:00,
2013-09-10 16:25:00,88.8,72.1,30.17,SSE,152,0.0,4.0,58,0.00,,,0.00,Wunderground v.1.15,2013-09-10 20:25:00,
2013-09-10 16:30:00,88.7,73.0,30.17,SSW,198,1.0,5.0,60,0.00,,,0.00,Wunderground v.1.15,2013-09-10 20:30:00,
2013-09-10 16:40:00,89.0,69.6,30.17,South,189,2.0,2.0,53,0.00,,,0.00,Wunderground v.1.15,2013-09-10 20:40:00,
2013-09-10 19:45:00,79.2,71.0,30.18,East,86,0.0,2.0,76,0.00,,,0.00,Wunderground v.1.15,2013-09-10 23:45:00,
2013-09-10 19:55:00,78.5,70.7,30.18,East,86,0.0,1.0,77,0.00,,,0.00,Wunderground v.1.15,2013-09-10 23:55:00,
2013-09-10 20:00:00,78.2,70.4,30.18,East,86,0.0,0.0,77,0.00,,,0.00,Wunderground v.1.15,2013-09-11 00:00:00,
2013-09-10 20:10:00,77.9,70.5,30.18,East,86,0.0,0.0,78,0.00,,,0.00,Wunderground v.1.15,2013-09-11 00:10:00,
2013-09-10 20:15:00,77.7,70.3,30.18,East,86,0.0,0.0,78,0.00,,,0.00,Wunderground v.1.15,2013-09-11 00:15:00,
2013-09-10 20:20:00,77.6,70.2,30.19,East,86,0.0,0.0,78,0.00,,,0.00,Wunderground v.1.15,2013-09-11 00:20:00,
2013-09-10 20:25:00,77.5,70.1,30.19,East,86,0.0,0.0,78,0.00,,,0.00,Wunderground v.1.15,2013-09-11 00:25:00,
2013-09-10 20:30:00,77.5,70.5,30.19,East,86,0.0,0.0,79,0.00,,,0.00,Wunderground v.1.15,2013-09-11 00:30:00,
2013-09-10 20:35:00,77.4,70.4,30.19,East,86,0.0,0.0,79,0.00,,,0.00,Wunderground v.1.15,2013-09-11 00:35:00,
2013-09-10 20:45:00,77.1,70.1,30.19,East,86,0.0,0.0,79,0.00,,,0.00,Wunderground v.1.15,2013-09-11 00:45:00,
2013-09-10 20:50:00,76.9,70.3,30.19,East,86,0.0,0.0,80,0.00,,,0.00,Wunderground v.1.15,2013-09-11 00:50:00,
2013-09-10 20:55:00,76.8,70.2,30.20,East,86,0.0,0.0,80,0.00,,,0.00,Wunderground v.1.15,2013-09-11 00:55:00,
2013-09-10 21:00:00,76.8,70.2,30.20,East,86,0.0,0.0,80,0.00,,,0.00,Wunderground v.1.15,2013-09-11 01:00:00,
2013-09-10 21:10:00,76.6,70.0,30.20,East,86,0.0,0.0,80,0.00,,,0.00,Wunderground v.1.15,2013-09-11 01:10:00,
2013-09-10 21:20:00,76.3,70.0,30.21,East,86,0.0,0.0,81,0.00,,,0.00,Wunderground v.1.15,2013-09-11 01:20:00,
2013-09-10 21:25:00,76.1,69.8,30.21,East,86,0.0,0.0,81,0.00,,,0.00,Wunderground v.1.15,2013-09-11 01:25:00,
2013-09-10 21:30:00,75.9,70.0,30.21,East,86,0.0,0.0,82,0.00,,,0.00,Wunderground v.1.15,2013-09-11 01:30:00,
2013-09-10 21:40:00,75.3,69.4,30.22,East,86,0.0,0.0,82,0.00,,,0.00,Wunderground v.1.15,2013-09-11 01:40:00,
2013-09-10 21:45:00,75.0,69.5,30.22,East,86,0.0,0.0,83,0.00,,,0.00,Wunderground v.1.15,2013-09-11 01:45:00,
2013-09-10 21:55:00,74.5,69.7,30.22,East,86,0.0,0.0,85,0.00,,,0.00,Wunderground v.1.15,2013-09-11 01:55:00,
2013-09-10 22:00:00,74.4,69.6,30.22,East,86,0.0,0.0,85,0.00,,,0.00,Wunderground v.1.15,2013-09-11 02:00:00,
2013-09-10 22:10:00,74.2,69.4,30.23,East,86,0.0,0.0,85,0.00,,,0.00,Wunderground v.1.15,2013-09-11 02:10:00,
2013-09-10 22:15:00,74.7,69.9,30.23,SE,136,0.0,8.0,85,0.00,,,0.00,Wunderground v.1.15,2013-09-11 02:15:00,
2013-09-10 22:20:00,75.4,69.9,30.23,SE,126,0.0,0.0,83,0.00,,,0.00,Wunderground v.1.15,2013-09-11 02:20:00,
2013-09-10 22:25:00,75.8,70.3,30.23,SSE,165,1.0,1.0,83,0.00,,,0.00,Wunderground v.1.15,2013-09-11 02:25:00,
2013-09-10 22:30:00,75.8,70.3,30.23,SSE,165,0.0,0.0,83,0.00,,,0.00,Wunderground v.1.15,2013-09-11 02:30:00,
2013-09-10 22:35:00,75.9,70.4,30.23,SSE,165,1.0,1.0,83,0.00,,,0.00,Wunderground v.1.15,2013-09-11 02:35:00,
2013-09-10 22:40:00,75.8,70.3,30.23,SSE,165,1.0,1.0,83,0.00,,,0.00,Wunderground v.1.15,2013-09-11 02:40:00,
2013-09-10 22:45:00,75.7,70.2,30.23,SSE,165,0.0,1.0,83,0.00,,,0.00,Wunderground v.1.15,2013-09-11 02:45:00,
2013-09-10 22:50:00,75.6,70.4,30.23,SSE,166,0.0,0.0,84,0.00,,,0.00,Wunderground v.1.15,2013-09-11 02:50:00,
2013-09-10 23:00:00,75.4,70.2,30.23,South,171,1.0,1.0,84,0.00,,,0.00,Wunderground v.1.15,2013-09-11 03:00:00,
2013-09-10 23:10:00,75.2,70.0,30.23,South,171,0.0,0.0,84,0.00,,,0.00,Wunderground v.1.15,2013-09-11 03:10:00,
2013-09-10 23:15:00,75.1,69.9,30.23,South,171,0.0,0.0,84,0.00,,,0.00,Wunderground v.1.15,2013-09-11 03:15:00,
2013-09-10 23:20:00,74.9,70.1,30.23,South,171,0.0,0.0,85,0.00,,,0.00,Wunderground v.1.15,2013-09-11 03:20:00,
2013-09-10 23:25:00,74.8,70.0,30.23,South,171,0.0,0.0,85,0.00,,,0.00,Wunderground v.1.15,2013-09-11 03:25:00,
2013-09-10 23:35:00,74.6,69.8,30.23,South,171,0.0,0.0,85,0.00,,,0.00,Wunderground v.1.15,2013-09-11 03:35:00,
2013-09-10 23:40:00,74.5,69.7,30.23,South,171,0.0,0.0,85,0.00,,,0.00,Wunderground v.1.15,2013-09-11 03:40:00,
2013-09-10 23:45:00,74.3,69.5,30.23,South,171,0.0,0.0,85,0.00,,,0.00,Wunderground v.1.15,2013-09-11 03:45:00,
2013-09-10 23:50:00,74.2,69.4,30.23,South,171,0.0,0.0,85,0.00,,,0.00,Wunderground v.1.15,2013-09-11 03:50:00,